Showing default

PODSAT, 43229

Orbit data source: Space-Track

PODSAT, 43229 is a payload satellite owned by DARPA (US) that was launched on Tue, 06 Mar 2018 UTC via an FALCON 9 launch vehicle from the Air Force Eastern Test Range (AFETR). Payload-class satellites include a variety of spacecraft equipped with specific instruments for various scientific and technological missions. These include communications satellites like Starlink; space stations such as the ISS; scientific satellites like the Hubble; Earth observation satellites from companies like Planet Labs, Umbra, and HawkEye 360; GPS; miniature CubeSats for education and research; and military/defense satellites.

Loading next visibility...
Identifier
43229, 2018-023B
Orbit
Active
Country
Flag of USUS
Related business
Manufacturer
NovaWurks
Mission
Operational Defense Technology
Bus & Motor
SIMPL, Unknown motor
Mass
~90 kg wet, ~90 kg dry
Launch date (UTC)
2018-03-06 (8 years ago)
Launch vehicle
FALCON 9
Launch site
Air Force Eastern Test Range (AFETR)
Object type
Payload
Rocket body
Debris
Shape & HBR
Box, 0.1 m
Radar Cross Section
0.135 m², Medium (>0.1 m² and < 1m²)

Expand to show TLE details & history
Last TLE update: 4 hours ago

TLE from 4 hours ago
0 PODSAT
1 43229U 18023B   26126.51600205  .00070523 -85723-6  58363-3 0  9997
2 43229  26.8360 212.9170 3512579 325.3545  16.1015  8.51083129189210
Epoch: 2026-05-06T12:23Z
TLE epoch observation values (Epoch: 2026-05-06T12:23:02.577Z)
Latitude
-0.00005°
Longitude
162.78078°
Altitude
513.656 km
Speed
8.738 km/s
True Right ascension
14h 11m 40s
True Declination
0° 00' 00"
Sunlit
Object was in full shadow at epoch
Visualization orbit readout
Latitude
Unknown
Longitude
Unknown
Altitude
Unknown
Speed
Unknown
Apparent Right ascension
Unknown
Apparent Declination
Unknown
Sunlit
N/A
Visualization observer readout
Local Sidereal Time
00:19:19
Azimuth
Unknown
Elevation
Unknown
Doppler factor
Unknown
Orbital elements
Apogee altitude
7,319.636 km
Perigee altitude
198.196 km
Semi-major axis
10,137.053 km
Eccentricity
0.35126
Inclination
26.836°
RAAN
212.917°
Arg. of periapsis
325.3545°
True anomaly
34.69088°
Mean anomaly
16.1015°
Eccentric anomaly
24.42275°
Mean motion
2.12655 °/min
Orbital period
169.29 mins
BSTAR
0.00058363
Loading maneuver chart data...
Computing Atmospheric mass density...
Loading historical data...
Loading historical data...
Loading historical data...
Loading historical data...
Loading historical data...
Loading historical data...
Loading historical data...
Other satellites on launch #23 in the year 2018 (2018-03-06 UTC)

Documentation

Showing up to 5 results
|